| time (UTC) | temp F | wind direction | speed MPH | gust MPH | rain 1hr in | rain 24hr in | rain mn in | humidity % | barometer mb |
| 20260507203058 | 65 | 133 | 1.0 | 4.0 | 0.00 | 0.30 | 0.03 | 34 | 1004.6 |
| 20260507201547 | 66 | 128 | 1.0 | 7.0 | 0.00 | 0.30 | 0.03 | 34 | 1004.7 |
| 20260507200056 | 65 | 111 | 0.0 | 13.0 | 0.00 | 0.30 | 0.03 | 36 | 1004.7 |
| 20260507194552 | 65 | 148 | 1.0 | 4.0 | 0.00 | 0.39 | 0.03 | 37 | 1004.8 |
| 20260507193049 | 65 | 147 | 2.0 | 7.0 | 0.00 | 0.39 | 0.03 | 35 | 1004.9 |
| 20260507191552 | 65 | 138 | 0.0 | 7.0 | 0.00 | 0.39 | 0.03 | 37 | 1004.9 |
| 20260507190048 | 66 | 134 | 1.0 | 5.0 | 0.00 | 0.39 | 0.03 | 36 | 1005.0 |
| 20260507184547 | 66 | 134 | 1.0 | 6.0 | 0.00 | 0.41 | 0.03 | 39 | 1005.0 |
| 20260507183051 | 65 | 111 | 1.0 | 6.0 | 0.00 | 0.41 | 0.03 | 39 | 1005.1 |
| 20260507181552 | 64 | 165 | 1.0 | 5.0 | 0.00 | 0.41 | 0.03 | 39 | 1005.1 |
| 20260507180100 | 66 | 131 | 0.0 | 7.0 | 0.00 | 0.41 | 0.03 | 41 | 1005.2 |
| 20260507174603 | 64 | 0 | 2.0 | 6.0 | 0.00 | 0.41 | 0.03 | 41 | 1005.2 |
| 20260507173054 | 63 | 165 | 1.0 | 11.0 | 0.00 | 0.41 | 0.03 | 43 | 1005.4 |
| 20260507171605 | 64 | 141 | 1.0 | 6.0 | 0.00 | 0.41 | 0.03 | 48 | 1005.3 |
| 20260507170053 | 64 | 0 | 0.0 | 4.0 | 0.00 | 0.41 | 0.03 | 51 | 1005.6 |
| 20260507164552 | 65 | 0 | 0.0 | 4.0 | 0.00 | 0.41 | 0.03 | 50 | 1005.6 |
| 20260507163052 | 61 | 157 | 1.0 | 7.0 | 0.00 | 0.41 | 0.03 | 57 | 1005.9 |
| 20260507161548 | 62 | 127 | 1.0 | 8.0 | 0.00 | 0.41 | 0.03 | 53 | 1005.9 |
| 20260507160053 | 63 | 124 | 1.0 | 4.0 | 0.00 | 0.41 | 0.03 | 53 | 1005.9 |
| 20260507154550 | 61 | 0 | 1.0 | 5.0 | 0.00 | 0.41 | 0.03 | 56 | 1006.4 |
| 20260507153049 | 61 | 139 | 2.0 | 6.0 | 0.00 | 0.41 | 0.03 | 54 | 1006.5 |
| 20260507151550 | 62 | 136 | 2.0 | 6.0 | 0.00 | 0.41 | 0.03 | 54 | 1006.7 |
| 20260507150052 | 61 | 0 | 0.0 | 6.0 | 0.00 | 0.41 | 0.03 | 59 | 1006.7 |
| 20260507144552 | 61 | 129 | 0.0 | 3.0 | 0.00 | 0.41 | 0.03 | 62 | 1006.7 |
| 20260507143051 | 60 | 0 | 0.0 | 6.0 | 0.00 | 0.41 | 0.03 | 59 | 1006.7 |
| 20260507141548 | 59 | 136 | 0.0 | 4.0 | 0.00 | 0.41 | 0.03 | 63 | 1006.7 |
| 20260507140106 | 58 | 139 | 1.0 | 3.0 | 0.00 | 0.41 | 0.03 | 63 | 1006.7 |
| 20260507134554 | 57 | 129 | 0.0 | 2.0 | 0.00 | 0.41 | 0.03 | 69 | 1006.8 |
| 20260507133058 | 56 | 0 | 0.0 | 3.0 | 0.00 | 0.41 | 0.03 | 68 | 1007.0 |
| 20260507131549 | 55 | 0 | 0.0 | 3.0 | 0.00 | 0.41 | 0.03 | 71 | 1007.1 |
| 20260507124607 | 54 | 136 | 0.0 | 3.0 | 0.00 | 0.41 | 0.03 | 76 | 1007.3 |
| 20260507123045 | 52 | 0 | 0.0 | 1.0 | 0.00 | 0.41 | 0.03 | 81 | 1007.4 |
| 20260507121549 | 50 | 124 | 0.0 | 2.0 | 0.00 | 0.41 | 0.03 | 84 | 1007.4 |
| 20260507120052 | 49 | 132 | 0.0 | 1.0 | 0.00 | 0.41 | 0.03 | 89 | 1007.4 |
| 20260507114609 | 48 | 0 | 0.0 | 2.0 | 0.00 | 0.41 | 0.03 | 91 | 1007.2 |
| 20260507113056 | 47 | 0 | 0.0 | 0.0 | 0.00 | 0.41 | 0.03 | 92 | 1007.2 |
| 20260507111555 | 47 | 0 | 0.0 | 1.0 | 0.00 | 0.41 | 0.03 | 94 | 1007.4 |
| 20260507110051 | 47 | 0 | 0.0 | 1.0 | 0.00 | 0.41 | 0.03 | 94 | 1006.9 |
| 20260507104555 | 47 | 0 | 0.0 | 2.0 | 0.00 | 0.41 | 0.03 | 94 | 1007.0 |
| 20260507103047 | 47 | 127 | 0.0 | 2.0 | 0.00 | 0.41 | 0.03 | 94 | 1007.0 |
| 20260507101551 | 47 | 0 | 0.0 | 1.0 | 0.00 | 0.41 | 0.03 | 94 | 1006.8 |
| 20260507100049 | 47 | 0 | 0.0 | 1.0 | 0.00 | 0.41 | 0.03 | 95 | 1006.8 |
| 20260507094547 | 47 | 0 | 0.0 | 1.0 | 0.00 | 0.41 | 0.03 | 95 | 1006.8 |
| 20260507093052 | 47 | 0 | 0.0 | 1.0 | 0.00 | 0.41 | 0.03 | 95 | 1006.7 |
| 20260507091550 | 47 | 0 | 0.0 | 1.0 | 0.02 | 0.41 | 0.03 | 94 | 1006.5 |
| 20260507090047 | 47 | 0 | 0.0 | 1.0 | 0.03 | 0.41 | 0.03 | 94 | 1006.8 |
| 20260507084550 | 48 | 0 | 0.0 | 1.0 | 0.03 | 0.41 | 0.03 | 93 | 1006.4 |
| 20260507083053 | 48 | 0 | 0.0 | 3.0 | 0.03 | 0.41 | 0.03 | 92 | 1006.3 |
| 20260507081551 | 49 | 0 | 0.0 | 3.0 | 0.01 | 0.39 | 0.01 | 90 | 1006.4 |
| 20260507080051 | 49 | 138 | 1.0 | 7.0 | 0.00 | 0.38 | 0.00 | 89 | 1006.2 |
| 20260507074607 | 49 | 135 | 0.0 | 5.0 | 0.00 | 0.38 | 0.00 | 89 | 1006.0 |
| 20260507073050 | 50 | 138 | 0.0 | 3.0 | 0.00 | 0.38 | 0.00 | 90 | 1005.9 |
| 20260507071551 | 50 | 134 | 0.0 | 3.0 | 0.00 | 0.38 | 0.00 | 90 | 1006.3 |
| 20260507070106 | 50 | 79 | 0.0 | 3.0 | 0.00 | 0.38 | 0.00 | 91 | 1005.8 |
| 20260507064550 | 50 | 0 | 0.0 | 5.0 | 0.00 | 0.38 | 0.00 | 91 | 1005.8 |
| 20260507063058 | 50 | 136 | 0.0 | 2.0 | 0.00 | 0.38 | 0.00 | 91 | 1005.6 |
| 20260507061549 | 51 | 129 | 0.0 | 3.0 | 0.00 | 0.38 | 0.00 | 91 | 1005.7 |
| 20260507060048 | 51 | 0 | 0.0 | 3.0 | 0.00 | 0.38 | 0.00 | 92 | 1005.9 |
| 20260507054553 | 52 | 0 | 0.0 | 3.0 | 0.00 | 0.38 | 0.00 | 92 | 1005.8 |
| 20260507053052 | 52 | 0 | 0.0 | 3.0 | 0.00 | 0.38 | 0.00 | 92 | 1005.9 |
| 20260507051551 | 52 | 0 | 0.0 | 2.0 | 0.00 | 0.38 | 0.00 | 92 | 1005.4 |
| 20260507050048 | 53 | 128 | 0.0 | 4.0 | 0.00 | 0.38 | 0.00 | 93 | 1005.6 |
| 20260507044552 | 54 | 127 | 0.0 | 1.0 | 0.00 | 0.38 | 0.00 | 93 | 1005.8 |
| 20260507043049 | 54 | 0 | 0.0 | 1.0 | 0.00 | 0.38 | 0.00 | 93 | 1005.6 |
| 20260507041549 | 55 | 142 | 0.0 | 3.0 | 0.00 | 0.38 | 0.00 | 93 | 1005.4 |
| 20260507040049 | 55 | 0 | 0.0 | 3.0 | 0.00 | 0.38 | 0.00 | 93 | 1005.3 |
| 20260507034547 | 56 | 141 | 0.0 | 7.0 | 0.00 | 0.38 | 0.38 | 95 | 1004.9 |
| 20260507033102 | 58 | 123 | 1.0 | 5.0 | 0.00 | 0.38 | 0.38 | 96 | 1005.2 |
| 20260507031604 | 59 | 0 | 0.0 | 4.0 | 0.00 | 0.38 | 0.38 | 96 | 1004.8 |
| 20260507030053 | 58 | 115 | 0.0 | 2.0 | 0.00 | 0.38 | 0.38 | 96 | 1004.5 |
| 20260507024552 | 58 | 0 | 0.0 | 1.0 | 0.00 | 0.38 | 0.38 | 96 | 1004.4 |
| 20260507023052 | 58 | 0 | 0.0 | 1.0 | 0.00 | 0.38 | 0.38 | 96 | 1004.6 |
| 20260507021553 | 57 | 0 | 0.0 | 1.0 | 0.00 | 0.38 | 0.38 | 96 | 1004.6 |
| 20260507020051 | 56 | 0 | 0.0 | 1.0 | 0.00 | 0.38 | 0.38 | 96 | 1004.8 |
| 20260507014554 | 56 | 0 | 0.0 | 2.0 | 0.00 | 0.38 | 0.38 | 96 | 1005.0 |
| 20260507013101 | 55 | 117 | 0.0 | 1.0 | 0.00 | 0.38 | 0.38 | 96 | 1005.1 |
| 20260507011552 | 55 | 0 | 0.0 | 1.0 | 0.00 | 0.38 | 0.38 | 96 | 1005.2 |
| 20260507010055 | 55 | 0 | 0.0 | 2.0 | 0.01 | 0.38 | 0.38 | 96 | 1005.1 |
| 20260507004551 | 55 | 114 | 0.0 | 2.0 | 0.02 | 0.38 | 0.38 | 96 | 1005.3 |
| 20260507003047 | 56 | 114 | 1.0 | 2.0 | 0.04 | 0.38 | 0.38 | 96 | 1005.3 |
| 20260507001552 | 56 | 123 | 0.0 | 3.0 | 0.05 | 0.38 | 0.38 | 96 | 1005.2 |
| 20260507000055 | 56 | 0 | 0.0 | 4.0 | 0.04 | 0.37 | 0.37 | 96 | 1005.0 |
| 20260506234554 | 56 | 0 | 1.0 | 3.0 | 0.04 | 0.36 | 0.36 | 96 | 1005.0 |
| 20260506233104 | 56 | 114 | 0.0 | 3.0 | 0.03 | 0.34 | 0.34 | 96 | 1005.1 |
| 20260506231553 | 56 | 97 | 0.0 | 3.0 | 0.03 | 0.33 | 0.33 | 95 | 1005.3 |
| 20260506224549 | 56 | 117 | 0.0 | 4.0 | 0.06 | 0.32 | 0.32 | 95 | 1005.4 |
| 20260506223050 | 56 | 0 | 0.0 | 4.0 | 0.06 | 0.31 | 0.31 | 95 | 1005.6 |
| 20260506221555 | 57 | 0 | 0.0 | 4.0 | 0.06 | 0.30 | 0.30 | 95 | 1005.6 |
| 20260506220048 | 57 | 109 | 1.0 | 4.0 | 0.05 | 0.28 | 0.28 | 95 | 1005.8 |
| 20260506214546 | 57 | 97 | 1.0 | 6.0 | 0.05 | 0.26 | 0.26 | 95 | 1005.9 |
| 20260506213048 | 57 | 117 | 1.0 | 4.0 | 0.07 | 0.25 | 0.25 | 95 | 1006.1 |
| 20260506211554 | 58 | 0 | 2.0 | 6.0 | 0.12 | 0.24 | 0.24 | 94 | 1006.2 |
| 20260506210049 | 58 | 0 | 1.0 | 5.0 | 0.12 | 0.23 | 0.23 | 94 | 1006.3 |
| 20260506204548 | 58 | 103 | 1.0 | 5.0 | 0.12 | 0.21 | 0.21 | 94 | 1006.3 |